Location: Newark
(50.0306°N, 2.3272°E)
Time: 08:50:02
(UTC+00:00)

Transit 2A Rocket - Pass Details

Date: 11 December 2019
Orbit: 593 x 910 km, 66.7° (Epoch: 26 January)

Event Time Altitude Azimuth Distance (km) Brightness Sun altitude
Rises 17:14:02 0° 237° (WSW) 2,924 9.8 -12.9°
Reaches altitude 10° 17:16:28 10° 245° (WSW) 1,985 8.6 -13.2°
Maximum altitude 17:20:37 39° 315° (NW) 908 5.6 -13.9°
Enters shadow 17:24:15 13° 23° (NNE) 1,773 6.5 -14.4°
Drops below altitude 10° 17:24:42 10° 26° (NNE) 1,937 - -14.5°
Sets 17:27:03 0° 34° (NE) 2,843 - -14.8°
